Вернуться в каталог

DMSP 5D-2 F11 DEB

АктивенPO
NORAD 28344·DEBRIS·🇺🇸 United States

Запущен Nov 28, 1991 с Vandenberg Space Force Base

Loading…

Ближайшие Пролёты (ближайшие 24 часа)

TLE

СвежийSource: Space-Track

Эпоха: Sep 14, 2026, 18:45 UTC

1 28344U 91082BH  26257.78133953  .00011608  00000-0  15951-2 0  9991
2 28344  98.5214   4.3125 0004601  73.2186  78.1112 14.78503013696176

Отслеживайте DMSP 5D-2 F11 DEB в реальном времени с AllMySat

Download on the App Store